This demonstration page uses our WeatherBlox Daily Observations layout. Learn more.

Left ArrowRight Arrow

34.74481, -87.66753

Hourly Observations for March 15, 2022

Temp ( °F °C ) Dew Point ( °F °C ) Humidity (%) Winds ( mph kmh ) Pressure ( in mb ) Visibility ( mi km ) Precip ( " mm )
12:53 am 00:53 Cloudy with Light Rain 56 13.3 34 1.1 44 44 S 5 7 30.27 1025 10 16 0.00 0.00
1:53 am 01:53 Cloudy 53 11.7 40 4.4 61 61 Calm 30.25 1024 10 16 0.00 0.00
2:53 am 02:53 Cloudy 51 10.6 42 5.6 71 71 E 6 9 30.22 1023 10 16 0.00 0.00
3:53 am 03:53 Cloudy 51 10.6 42 5.6 71 71 Calm 30.20 1023 10 16 0.00 0.00
4:53 am 04:53 Cloudy 51 10.6 40 4.4 66 66 ESE 5 7 30.19 1022 10 16 0.00 0.00
5:53 am 05:53 Cloudy 51 10.6 40 4.4 66 66 E 3 6 30.19 1022 10 16 0.00 0.00
6:53 am 06:53 Mostly Cloudy 52 11.1 39 3.9 61 61 E 6 9 30.19 1022 10 16 0.00 0.00
7:53 am 07:53 Sunny 52 11.1 38 3.3 59 59 E 8 13 30.17 1022 10 16 0.00 0.00
8:53 am 08:53 Sunny 54 12.2 39 3.9 57 57 E 7 11 30.18 1022 10 16 0.00 0.00
9:53 am 09:53 Sunny 57 13.9 41 5 55 55 E 8 13 30.21 1023 10 16 0.00 0.00
10:53 am 10:53 Sunny 60 15.6 44 6.7 56 56 E 9 15 30.19 1023 10 16 0.00 0.00
11:53 am 11:53 Mostly Sunny 61 16.1 46 7.8 58 58 E 10 17 30.19 1022 10 16 0.00 0.00
12:53 pm 12:53 Mostly Cloudy 61 16.1 48 8.9 63 63 E 9 15 30.16 1021 10 16 0.00 0.00
1:53 pm 13:53 Cloudy with Light Rain 63 17.2 51 10.6 65 65 E 13 20 30.12 1020 9 14 0.00 0.00
2:53 pm 14:53 Cloudy 62 16.7 52 11.1 70 70 ESE 15 24 30.09 1019 10 16 0.00 0.00
3:53 pm 15:53 Cloudy with Light Rain 59 15 55 12.8 87 87 E 10 17 30.08 1019 4 6 0.02 0.51
4:53 pm 16:53 Cloudy with Light Rain 59 15 56 13.3 90 90 E 10 17 30.06 1018 5 8 0.03 0.76
5:15 pm 17:15 Cloudy with Light Rain 59 15 56 13.3 90 90 E 8 13 30.05 1018 5 8 0.01 0.25
5:26 pm 17:26 Cloudy with Light Rain 59 15 56 13.3 90 90 E 8 13 30.05 1018 4 6 0.02 0.51
5:31 pm 17:31 Cloudy with Light Rain 59 15 56 13.3 90 90 E 8 13 30.05 1018 3 4 0.03 0.76
5:42 pm 17:42 Cloudy with Rain 59 15 56 13.3 90 90 E 9 15 30.05 1018 2 2 0.05 1.27
5:53 pm 17:53 Cloudy with Light Rain 59 15 56 13.3 90 90 E 8 13 30.05 1018 3 5 0.06 1.52
6:20 pm 18:20 Cloudy with Light Rain 58 14.4 56 13.3 93 93 ENE 7 11 30.05 1018 2 3 0.03 0.76
6:34 pm 18:34 Cloudy with Light Rain 58 14.4 56 13.3 93 93 ENE 8 13 30.05 1018 2 3 0.04 1.02
6:46 pm 18:46 Cloudy with Light Rain 58 14.4 56 13.3 93 93 ENE 8 13 30.05 1018 4 6 0.05 1.27
6:53 pm 18:53 Cloudy with Light Rain 58 14.4 56 13.3 93 93 ENE 9 15 30.04 1017 3 4 0.06 1.52
7:23 pm 19:23 Cloudy with Rain 58 14.4 55 12.8 90 90 ENE 12 19 30.04 1017 3 5 0.05 1.27
7:53 pm 19:53 Cloudy with Light Rain 58 14.4 55 12.8 90 90 ENE 12 19 30.03 1017 5 8 0.08 2.03
8:02 pm 20:02 Cloudy with Rain 58 14.4 55 12.8 90 90 ENE 12 19 30.04 1017 4 6 0.02 0.51
8:27 pm 20:27 Cloudy with Light Rain 58 14.4 55 12.8 90 90 ENE 13 20 30.03 1017 8 13 0.06 1.52
8:53 pm 20:53 Cloudy with Rain 58 14.4 55 12.8 90 90 E 10 17 30.03 1017 5 8 0.10 2.54
9:21 pm 21:21 Cloudy with Heavy Rain 57 13.9 55 12.8 93 93 E 10 17 30.04 1017 3 5 0.11 2.79
9:32 pm 21:32 Cloudy with Heavy Rain 57 13.9 55 12.8 93 93 E 10 17 30.04 1017 3 4 0.18 4.57
9:38 pm 21:38 Cloudy with Heavy Rain 57 13.9 55 12.8 93 93 E 7 11 30.05 1018 3 4 0.23 5.84
9:42 pm 21:42 Cloudy with Rain 57 13.9 55 12.8 93 93 E 7 11 30.05 1018 3 5 0.25 6.35
9:53 pm 21:53 Cloudy with Heavy Rain 57 13.9 55 12.8 93 93 ENE 9 15 30.04 1017 4 6 0.30 7.62
10:05 pm 22:05 Cloudy with Heavy Rain 57 13.9 55 12.8 93 93 E 13 20 30.05 1018 3 5 0.07 1.78
10:07 pm 22:07 Cloudy with Heavy Rain 57 13.9 55 12.8 93 93 ENE 12 19 30.04 1017 3 4 0.09 2.29
10:25 pm 22:25 Cloudy with Heavy Rain 57 13.9 55 12.8 93 93 ENE 9 15 30.04 1017 3 5 0.20 5.08
10:53 pm 22:53 Cloudy with Rain 57 13.9 55 12.8 93 93 ENE 14 22 30.03 1017 4 6 0.29 7.37
11:37 pm 23:37 Cloudy with Light Rain 57 13.9 54 12.2 90 90 NE 18 30 29.99 1016 8 13 0.10 2.54
11:53 pm 23:53 Cloudy 57 13.9 54 12.2 90 90 ENE 13 20 30.01 1016 10 16 0.10 2.54

Powered by AerisWeather